User: anonymous   Login
Location: Caltech
(34.1382°N, 118.1253°W)
Time: 22:24:45
(UTC-07:00)
Language:

NOAA 19 - Orbit

View from above orbital plane
View from above orbital plane
View from above satellite
View from above satellite

Ground track
Ground track

The orbit data is extracted from the following two-line orbital elements,

1 33591U 09005A   17175.56660686 +.00000070 +00000-0 +62959-4 0  9991
2 33591 099.0930 142.4966 0012921 250.4973 109.4802 14.12189580431438
Epoch (UTC): 24 June 2017 13:35:54
Eccentricity: 0.0012921
inclination: 99.0930°
perigee height: 842 km
apogee height: 861 km
right ascension of ascending node: 142.4966°
argument of perigee: 250.4973°
revolutions per day: 14.12189580
mean anomaly at epoch: 109.4802°
orbit number at epoch: 43143

The dashed part of the orbit path shows where the satellite is in the earth's shadow,  

DLR